Voltar ao catálogo

FENGYUN 1C DEB

AtivoPO
NORAD 37717·DEBRIS·🇨🇳 China

Lançado May 10, 1999 de Taiyuan Satellite Launch Center

Loading…

Próximas Passagens (próximas 24 horas)

TLE

AtualizadoSource: Space-Track

Época: Sep 13, 2026, 05:41 UTC

1 37717U 99025EMJ 26256.23684294  .00028381  00000-0  15434-2 0  9990
2 37717  98.7478 252.7472 0034477 281.6415 141.8328 15.13925908935255

Acompanhe FENGYUN 1C DEB em tempo real com AllMySat

Download on the App Store